#timestamp,LO_Frequency,Hit,StdDev 
1507244415.7,286047009.6,Y
1507244435.6,286047000.3,P
1507244455.4,286046996.8,N
1507244475.2,286046995.1,N
1507244495.1,286046992.6,N
1507244496.0,286046992.6,N
1507244515.8,286046988.8,N
1507244535.6,286046992.0,N
1507244555.5,286046994.6,N
1507244575.3,286046991.9,N
1507244595.1,286046991.3,N
1507244615.9,286046991.2,N
1507244635.7,286046991.1,N
1507244655.5,286046990.3,N
1507244675.3,286046999.3,N
1507244695.2,286047002.2,N
1507244715.0,286047000.4,N
1507244715.9,286047000.4,N
1507244735.7,286046999.4,N
1507244755.6,286046997.4,N
1507244775.4,286046994.6,N
1507244795.2,286046991.4,N
1507244815.1,286046990.7,N
1507244816.0,286046990.7,N
1507244835.8,286046995.9,N
1507244855.6,286046992.4,N
1507244875.5,286046988.6,N
1507244895.3,286046985.5,N
1507244915.1,286046988.4,N
1507244935.9,286046987.7,N
1507244955.7,286046983.6,Y
1507244975.5,286046986.8,P
1507244995.4,286046985.2,P
1507245015.2,286046982.9,P
1507245035.0,286046980.5,Y
1507245035.9,286046980.5,P
1507245055.8,286046993.3,N
1507245075.6,286046993.3,N
1507245095.4,286046994.2,N
1507245115.3,286046992.4,N
1507245135.1,286046993.2,N
1507245136.0,286046993.2,N
1507245155.8,286046990.6,N
1507245175.7,286046992.6,N
1507245195.5,286046992.7,N
1507245215.3,286046992.6,N
1507245235.1,286046990.2,N
1507245255.9,286046991.6,N
1507245275.7,286046988.6,Y
1507245295.5,286046997.0,P
1507245315.4,286046997.7,N
1507245335.2,286046995.1,N
1507245355.0,286046997.7,N
1507245355.9,286046997.7,N
1507245375.8,286046998.2,N
1507245395.6,286046998.4,N
1507245415.4,286046998.5,N
1507245435.3,286046998.8,N
1507245455.1,286046999.5,N
1507245456.0,286046999.5,N
1507245475.8,286047002.7,N
1507245495.7,286047002.5,N
1507245515.5,286047004.4,N
1507245535.3,286047003.7,N
1507245555.2,286047004.2,N
1507245575.9,286047002.1,N
1507245595.7,286047000.2,N
1507245615.5,286047003.4,N
1507245635.4,286047003.3,N
1507245655.2,286047003.2,N
1507245675.0,286047005.1,N
1507245675.9,286047005.1,N
1507245695.8,286047003.6,N
1507245715.6,286047004.7,N
1507245735.4,286047006.3,N
1507245755.3,286047006.4,N
1507245775.1,286047004.9,N
1507245776.0,286047004.9,N
1507245795.8,286047006.0,N
1507245815.7,286047003.3,N
1507245835.5,286047004.0,N
1507245855.3,286047005.5,N
1507245875.2,286047005.4,N
1507245895.9,286047002.9,N
1507245915.7,286047003.6,N
1507245935.5,286047005.4,N
1507245955.4,286047005.9,N
1507245975.2,286047004.3,N
1507245995.0,286047005.2,N
1507245996.0,286047005.2,Y
1507246015.8,286047002.6,P
1507246035.6,286047001.6,N
1507246055.4,286047002.7,N
1507246075.3,286047002.3,N
1507246095.1,286047002.5,Y
1507246115.8,286046999.2,P
1507246135.7,286046996.8,N
1507246155.5,286046994.5,N
1507246175.3,286046994.1,N
1507246195.2,286046991.9,N
1507246215.0,286046992.2,N
1507246215.9,286046992.2,N
1507246235.7,286046993.6,N
1507246255.6,286046993.0,N
1507246275.4,286046991.9,N
1507246295.2,286046998.0,N
1507246315.1,286047002.5,N
1507246316.0,286047002.5,N
1507246335.8,286047003.3,N
1507246355.6,286047006.3,N
1507246375.5,286047008.7,N
1507246395.3,286047010.3,N
1507246415.1,286047012.3,N
1507246435.9,286047009.6,N
1507246455.7,286047008.1,N
1507246475.5,286047010.2,N
1507246495.3,286047009.6,N
1507246515.2,286047006.5,N
1507246535.0,286047003.2,N
1507246535.9,286047003.2,N
1507246555.7,286047001.9,N
1507246575.6,286047004.2,N
1507246595.4,286047002.9,N
1507246615.2,286047005.3,N
1507246635.1,286047002.6,N
1507246636.0,286047002.6,N
1507246655.8,286047000.1,N
1507246675.6,286047000.6,N
1507246695.5,286047001.9,N
1507246715.3,286047002.3,N
1507246735.1,286047000.3,N
1507246755.9,286047001.2,N
1507246775.7,286046996.2,N
1507246795.5,286046995.0,N
1507246815.3,286046998.0,N
1507246835.2,286046993.7,N
1507246855.0,286046994.4,N
1507246855.9,286046994.4,N
1507246875.7,286046992.3,N
1507246895.6,286046991.7,N
1507246915.4,286046994.8,N
1507246935.2,286046993.8,N
1507246955.1,286046995.7,N
1507246956.0,286046995.7,N
1507246975.8,286046998.0,N
1507246995.6,286046998.2,N
1507247015.5,286047004.3,N
1507247035.3,286047000.9,N
1507247055.1,286046997.6,N
1507247075.9,286046996.1,N
1507247095.7,286046994.3,N
1507247115.5,286046990.9,N
1507247135.4,286046991.2,N
1507247155.2,286046988.7,N
1507247175.0,286046989.8,N
1507247175.9,286046989.8,N
1507247195.8,286046988.8,N
1507247215.6,286046990.5,N
1507247235.4,286046992.3,N
1507247255.2,286046993.9,N
1507247275.1,286046993.6,N
1507247276.0,286046993.6,N
1507247295.8,286046991.8,N
1507247315.6,286046993.5,N
1507247335.5,286046996.0,N
1507247355.3,286046995.9,N
1507247375.1,286046994.6,N
1507247395.9,286046992.4,N
1507247415.7,286046992.4,N
1507247435.5,286046990.7,N
1507247455.4,286046991.1,N
1507247475.2,286046990.6,N
1507247495.0,286046990.1,N
1507247495.9,286046990.1,N
1507247515.8,286046992.6,N
1507247535.6,286046990.2,N
1507247555.4,286046991.0,N
1507247575.3,286046991.4,Y
1507247595.1,286046999.6,P
1507247596.0,286046999.6,N
1507247615.8,286047001.2,N
1507247635.7,286047000.6,N
1507247655.5,286046999.3,N
1507247675.3,286047000.7,N
1507247695.1,286046999.7,N
1507247715.9,286046998.5,N
1507247735.7,286047000.2,N
1507247755.5,286047004.3,N
1507247775.4,286047003.1,N
1507247795.2,286047005.4,N
1507247815.0,286047003.0,N
1507247815.9,286047003.0,N
1507247835.8,286047007.4,N
1507247855.6,286047007.4,N
1507247875.4,286047004.8,N
1507247895.3,286047005.7,N
1507247915.1,286047004.8,N
1507247916.0,286047004.8,N
1507247935.8,286047006.7,N
1507247955.7,286047006.6,N
1507247975.5,286047008.7,N
1507247995.3,286047008.6,N
